TimeCDT,TemperatureF,Dew PointF,Humidity,Sea Level PressureIn,VisibilityMPH,Wind Direction,Wind SpeedMPH,Gust SpeedMPH,PrecipitationIn,Events,Conditions,WindDirDegrees,DateUTC
12:53 AM,54.0,54.0,100,29.71,10.0,NE,6.9,-,N/A,,Overcast,40,2013-05-22 05:53:00
1:41 AM,53.6,51.8,94,29.70,1.8,NNE,5.8,-,N/A,,Overcast,30,2013-05-22 06:41:00
1:53 AM,52.0,52.0,100,29.71,2.5,NE,4.6,-,N/A,,Overcast,50,2013-05-22 06:53:00
2:21 AM,51.8,51.8,100,29.72,0.8,Variable,3.5,-,N/A,,Mist,0,2013-05-22 07:21:00
2:53 AM,50.0,50.0,100,29.72,0.5,NNE,3.5,-,N/A,Fog,Fog,20,2013-05-22 07:53:00
3:19 AM,50.0,50.0,100,29.72,0.2,North,4.6,-,N/A,Fog,Fog,360,2013-05-22 08:19:00
3:33 AM,48.2,48.2,100,29.73,0.5,North,3.5,-,0.01,Fog,Fog,10,2013-05-22 08:33:00
3:53 AM,48.9,48.9,100,29.73,0.5,North,3.5,-,0.01,Fog,Fog,10,2013-05-22 08:53:00
4:41 AM,48.2,46.4,93,29.73,1.5,NNE,4.6,-,N/A,,Overcast,20,2013-05-22 09:41:00
4:53 AM,46.9,46.9,100,29.73,1.8,NNE,5.8,-,N/A,,Overcast,20,2013-05-22 09:53:00
5:40 AM,46.4,46.4,100,29.73,0.5,NNE,3.5,-,N/A,Fog,Fog,30,2013-05-22 10:40:00
5:53 AM,46.9,46.9,100,29.75,0.5,Calm,Calm,-,N/A,Fog,Fog,0,2013-05-22 10:53:00
6:28 AM,46.4,46.4,100,29.74,1.0,ENE,3.5,-,N/A,,Overcast,60,2013-05-22 11:28:00
6:53 AM,46.9,46.9,100,29.75,1.5,NE,4.6,-,N/A,,Overcast,40,2013-05-22 11:53:00
7:03 AM,46.4,46.4,100,29.74,2.5,NNE,3.5,-,N/A,,Overcast,30,2013-05-22 12:03:00
7:22 AM,48.2,46.4,93,29.74,3.0,NNE,4.6,-,N/A,,Overcast,30,2013-05-22 12:22:00
7:53 AM,48.9,48.0,97,29.75,9.0,NNE,4.6,-,N/A,,Overcast,20,2013-05-22 12:53:00
8:29 AM,48.2,48.2,100,29.74,1.8,NNE,4.6,-,N/A,,Overcast,20,2013-05-22 13:29:00
8:43 AM,50.0,48.2,94,29.74,0.8,NE,4.6,-,N/A,,Overcast,40,2013-05-22 13:43:00
8:53 AM,50.0,50.0,100,29.75,0.8,NE,3.5,-,N/A,,Overcast,40,2013-05-22 13:53:00
9:24 AM,50.0,48.2,94,29.74,1.0,NNE,5.8,-,N/A,,Mist,30,2013-05-22 14:24:00
9:49 AM,50.0,50.0,100,29.74,2.5,NNE,5.8,-,N/A,,Overcast,20,2013-05-22 14:49:00
9:53 AM,50.0,50.0,100,29.75,3.0,NNE,5.8,-,N/A,,Overcast,30,2013-05-22 14:53:00
10:01 AM,50.0,50.0,100,29.74,1.8,NNE,6.9,-,N/A,,Overcast,30,2013-05-22 15:01:00
10:53 AM,51.1,50.0,96,29.77,1.2,Variable,4.6,-,N/A,,Overcast,0,2013-05-22 15:53:00
11:07 AM,51.8,51.8,100,29.76,2.5,NNE,5.8,-,N/A,,Overcast,30,2013-05-22 16:07:00
11:20 AM,51.8,51.8,100,29.75,3.0,NNE,6.9,-,N/A,,Overcast,30,2013-05-22 16:20:00
11:53 AM,51.1,51.1,100,29.76,9.0,NNE,5.8,-,N/A,,Overcast,20,2013-05-22 16:53:00
12:44 PM,51.8,50.0,94,29.76,10.0,NNE,6.9,-,N/A,,Overcast,20,2013-05-22 17:44:00
12:53 PM,52.0,50.0,93,29.77,10.0,North,6.9,-,N/A,,Overcast,10,2013-05-22 17:53:00
1:53 PM,52.0,48.9,89,29.78,10.0,NNE,9.2,-,N/A,,Overcast,30,2013-05-22 18:53:00
2:53 PM,52.0,48.9,89,29.79,10.0,NE,5.8,-,0.00,Rain,Light Rain,40,2013-05-22 19:53:00
3:46 PM,51.8,48.2,88,29.79,10.0,North,4.6,-,0.00,Rain,Light Rain,10,2013-05-22 20:46:00
3:53 PM,51.1,48.0,89,29.81,10.0,NNE,10.4,16.1,0.01,Rain,Light Rain,20,2013-05-22 20:53:00
4:53 PM,50.0,48.0,93,29.84,7.0,NE,5.8,-,0.03,Rain,Light Rain,40,2013-05-22 21:53:00
5:53 PM,48.0,46.9,96,29.86,5.0,North,6.9,-,0.04,Rain,Light Rain,10,2013-05-22 22:53:00
6:01 PM,48.2,46.4,93,29.83,5.0,NNE,5.8,-,0.00,Rain,Light Rain,20,2013-05-22 23:01:00
6:30 PM,48.2,46.4,93,29.84,9.0,NNE,6.9,-,0.02,Rain,Light Rain,30,2013-05-22 23:30:00
6:53 PM,48.0,45.0,89,29.87,10.0,NNE,8.1,16.1,0.02,Rain,Light Rain,30,2013-05-22 23:53:00
7:53 PM,46.9,45.0,93,29.89,10.0,Variable,6.9,-,0.01,Rain,Light Rain,0,2013-05-23 00:53:00
8:38 PM,48.2,46.4,93,29.88,4.0,NE,12.7,19.6,0.02,Rain,Light Rain,40,2013-05-23 01:38:00
8:53 PM,48.0,46.0,93,29.91,7.0,NE,8.1,18.4,0.02,Rain,Light Rain,50,2013-05-23 01:53:00
9:06 PM,48.2,46.4,93,29.89,10.0,NE,6.9,-,0.00,,Overcast,40,2013-05-23 02:06:00
9:53 PM,48.0,46.0,93,29.93,10.0,NE,9.2,-,0.01,Rain,Light Rain,40,2013-05-23 02:53:00
10:17 PM,48.2,44.6,87,29.92,7.0,NNE,12.7,18.4,0.01,Rain,Light Rain,30,2013-05-23 03:17:00
10:53 PM,46.0,43.0,89,29.96,10.0,NE,12.7,21.9,0.02,Rain,Light Rain,40,2013-05-23 03:53:00
11:07 PM,46.4,42.8,87,29.94,10.0,NE,8.1,19.6,0.00,Rain,Light Rain,40,2013-05-23 04:07:00
11:53 PM,45.0,42.1,90,29.99,10.0,NE,5.8,-,0.01,Rain,Light Rain,40,2013-05-23 04:53:00